Погода в Братолюбовке

Украина / Кировоградская область     48°12′23″N   32°57′07″E
темп.,
°C
ветер,
м/с
пор.,
м/с
влажн.,
%
обл.,
%
осадки,
мм/ч
давл.,
гПа
погр.,
м
20 апреля, вт
вт2000:00+7ссв357495 0.0 1013123
03:00+6св3577100 0.0 101188
06:00+6ссв3582100 0.0 1009116
09:00+9ссв5672100 0.0 1008369
12:00+12ссв5657100 0.1 10061327
15:00+12ссз7759100 0.1 10051341
18:00+12сз7961100 0.1 10051269
21:00+8зсз487555 0.2 1007202
21 апреля, ср
ср2100:00+7з51081100 0.0 1009224
03:00+6з488449 0.0 1010142
06:00+5з348853 0.0 101264
09:00+10зюз466382 0.0 1013539
12:00+13юз675534 0.5 10131627
15:00+13юз675499 1.6 10141433
18:00+13юз575597 0.6 10141318
21:00+10юз367494 0.6 101695
22 апреля, чт
чт2200:00+8юз5108528 0.0 1017218
03:00+7юз49915 0.0 1017166
06:00+6юз369011 0.0 1018110
09:00+12ююз46635 0.0 1019387
12:00+17ююз674361 0.0 10192350
15:00+16ююз574782 0.0 10191313
18:00+17ююз674452 0.0 10181583
21:00+11ююз411673 0.0 1020245
23 апреля, пт
пт2300:00+9ююз511795 0.0 1020246
03:00+8ю5118620 0.0 1019247
06:00+7ю5128771 0.0 1019304
09:00+12ю7126668 0.0 1019552
12:00+17ююз911465 0.0 10181906
15:00+18ююз9103999 0.0 10172567
18:00+15ююз8125450 0.0 10161332
21:00+12ююз71365100 0.0 1017833
24 апреля, сб
сб2400:00+6ссз7884100 0.0 1017442
03:00+5сз61092100 2.3 1018745
06:00+4з38925 0.1 1019344
09:00+8зсз79655 0.1 10191125
12:00+9зсз911395 0.1 10201904
15:00+10зсз8113771 0.1 10202017
18:00+9зсз711405 0.0 10212056
21:00+5зсз36540 0.0 1022106